Location: Ostrava
(49.8330°N, 18.2830°E)
Time: 08:50:22
(UTC+02:00)

Cosmos 1263 Rocket - Visible Passes

Search period start: 20 August 2014 00:00
Search period end: 30 August 2014 00:00
Orbit: 322 x 596 km, 82.9° (Epoch: 19 August)

Date Brightness Start Highest point End Pass type
(mag) Time Alt. Az. Time Alt. Az. Time Alt. Az.
22 Aug 5.5 04:56:36 10° ESE 04:59:20 17° E 05:02:04 10° NE visible
25 Aug 4.9 04:51:28 10° SE 04:54:58 25° E 04:58:29 10° NNE visible
26 Aug 5.4 04:19:54 10° ESE 04:22:17 15° E 04:24:39 10° NE visible
27 Aug 2.9 05:19:00 10° S 05:23:16 68° E 05:27:29 10° NNE visible
28 Aug 4.0 04:46:23 10° SSE 04:50:20 37° E 04:54:13 10° NNE visible
29 Aug 5.0 04:14:11 10° SE 04:17:26 22° E 04:20:39 10° NE visible
